ATLAS D R/B, 2328

Orbit data source: Space-Track

ATLAS D R/B, 2328 is space debris in LEO originally from a launch on Thu, 14 Jul 1966 UTC launched from the Air Force Western Test Range (AFWTR). Debris objects in space refer to the collection of defunct objects orbiting the Earth. Examples of debris include non-operational satellites, rocket bodies, and fragments generated from explosions, collisions, or faulty payload assembly.

Loading next visibility...
Identifier
2328, 1966-063C
Orbit
LEO
Country
Flag of USUS
Related business
Manufacturer
ABL
Mission
Spacecraft
Bus & Motor
ALTAIR, Unknown motor
Mass
~125 kg wet, ~125 kg dry
Launch date (UTC)
1966-07-14 (60 years ago)
Launch vehicle
Unknown
Launch site
Air Force Western Test Range (AFWTR)
Object type
Payload
Rocket body
Debris
Shape & HBR
Unknown
Radar Cross Section
Large (>1 m²)

Expand to show TLE details & history
Last TLE update: 11 hours ago

TLE from 11 hours ago
0 ATLAS D R/B
1 02328U 66063C   26174.88690972  .00000254  00000-0  75543-5 0  9995
2 02328 144.2323  69.8637 0010227 223.7549 350.5706 13.69983460  1173
Epoch: 2026-06-23T21:17Z
TLE epoch observation values (Epoch: 2026-06-23T21:17:08.999Z)
Latitude
-19.3599°
Longitude
-10.50366°
Altitude
995.722 km
Speed
7.359 km/s
True Right ascension
14h 43m 20s
True Declination
-19° 15' 22"
Sunlit
Object was in full shadow at epoch
Visualization orbit readout
Latitude
Unknown
Longitude
Unknown
Altitude
Unknown
Speed
Unknown
Apparent Right ascension
Unknown
Apparent Declination
Unknown
Sunlit
N/A
Visualization observer readout
Local Sidereal Time
19:42:45
Azimuth
Unknown
Elevation
Unknown
Doppler factor
Unknown
Orbital elements
Apogee altitude
1,010.094 km
Perigee altitude
994.998 km
Semi-major axis
7,380.683 km
Eccentricity
0.00102
Inclination
144.2323°
RAAN
69.8637°
Arg. of periapsis
223.7549°
True anomaly
350.55138°
Mean anomaly
350.5706°
Eccentric anomaly
350.56099°
Mean motion
3.42293 °/min
Orbital period
105.17 mins
BSTAR
0.0000075543
Loading maneuver chart data...
Computing Atmospheric mass density...
Loading historical data...
Loading historical data...
Loading historical data...
Loading historical data...
Loading historical data...
Loading historical data...
Loading historical data...

Documentation

Showing up to 5 results
|